This demonstration page uses our WeatherBlox Daily Observations layout. Learn more.

Left ArrowRight Arrow

Hourly Observations for December 18, 2020

Temp ( °F °C ) Dew Point ( °F °C ) Humidity (%) Winds ( mph kmh ) Pressure ( in mb ) Visibility ( mi km ) Precip ( " mm )
12:15 am 00:15 Cloudy 30 -1 30 -1 100 100 Calm 30.31 1026 7 11.26538 N/A
12:35 am 00:35 Cloudy 30 -1 30 -1 100 100 Calm 30.32 1027 7 11.26538 N/A
12:55 am 00:55 Cloudy 28 -2 28 -2 100 100 W 3 6 30.33 1027 7 11.26538 N/A
1:15 am 01:15 Cloudy 28 -2 28 -2 100 100 Calm 30.33 1027 7 11.26538 N/A
1:35 am 01:35 Mostly Cloudy 28 -2 28 -2 100 100 Calm 30.33 1027 7 11.26538 N/A
1:55 am 01:55 Cloudy 27 -3 27 -3 100 100 WSW 5 7 30.35 1028 7 11.26538 N/A
2:15 am 02:15 Cloudy 27 -3 27 -3 100 100 WSW 5 7 30.36 1028 7 11.26538 N/A
2:35 am 02:35 Cloudy 27 -3 27 -3 100 100 WSW 5 7 30.36 1028 7 11.26538 N/A
2:55 am 02:55 Cloudy 27 -3 27 -3 100 100 WSW 5 7 30.37 1028 7 11.26538 N/A
3:15 am 03:15 Cloudy 27 -3 27 -3 100 100 SW 3 6 30.38 1029 7 11.26538 N/A
3:35 am 03:35 Cloudy 27 -3 27 -3 100 100 SW 3 6 30.39 1029 7 11.26538 N/A
3:55 am 03:55 Partly Cloudy 25 -4 25 -4 100 100 Calm 30.39 1029 5 8.0467 N/A
4:15 am 04:15 Clear 23 -5 23 -5 100 100 Calm 30.4 1030 4 6.43736 N/A
4:35 am 04:35 Clear 23 -5 23 -5 100 100 Calm 30.4 1030 2 3.21868 N/A
4:55 am 04:55 Clear 23 -5 23 -5 100 100 Calm 30.4 1030 2.5 4.02335 N/A
5:15 am 05:15 Mostly Cloudy 21 -6 21 -6 100 100 Calm 30.41 1030 1.75 2.816345 N/A
5:35 am 05:35 Mostly Cloudy 21 -6 21 -6 100 100 Calm 30.41 1030 1.5 2.41401 N/A
5:55 am 05:55 Mostly Cloudy 21 -6 21 -6 100 100 Calm 30.41 1030 0.75 1.207005 N/A
6:15 am 06:15 Mostly Cloudy 19 -7 19 -7 100 100 Calm 30.42 1030 1.5 2.41401 N/A
6:35 am 06:35 Mostly Cloudy 18 -8 18 -8 100 100 Calm 30.44 1031 1.25 2.011675 N/A
6:55 am 06:55 Clear 18 -8 18 -8 100 100 Calm 30.45 1031 2.5 4.02335 N/A
7:15 am 07:15 Partly Cloudy 19 -7 19 -7 100 100 S 3 6 30.45 1031 1.25 2.011675 N/A
7:35 am 07:35 Clear 19 -7 19 -7 100 100 SSE 3 6 30.45 1031 2 3.21868 N/A
7:55 am 07:55 Clear 19 -7 19 -7 100 100 Calm 30.45 1031 2 3.21868 N/A
8:15 am 08:15 Cloudy 18 -8 18 -8 100 100 SSE 3 6 30.47 1032 0.25 0.402335 N/A
8:35 am 08:35 Partly Cloudy 21 -6 21 -6 100 100 S 5 7 30.46 1031 1.5 2.41401 N/A
8:55 am 08:55 Mostly Cloudy 23 -5 23 -5 100 100 SSE 5 7 30.45 1031 0.75 1.207005 N/A
9:15 am 09:15 Mostly Cloudy 25 -4 25 -4 100 100 SE 5 7 30.45 1031 1 1.60934 N/A
9:35 am 09:35 Sunny 25 -4 25 -4 100 100 SE 5 7 30.45 1031 2 3.21868 N/A
9:55 am 09:55 Sunny 27 -3 27 -3 100 100 SE 5 7 30.46 1031 3 4.82802 N/A
10:15 am 10:15 Sunny 28 -2 28 -2 100 100 SSE 5 7 30.46 1032 4 6.43736 N/A
10:35 am 10:35 Sunny 28 -2 28 -2 100 100 S 6 9 30.46 1032 5 8.0467 N/A
10:55 am 10:55 Sunny 28 -2 28 -2 100 100 S 7 11 30.47 1032 5 8.0467 N/A
11:15 am 11:15 Sunny 30 -1 30 -1 100 100 S 7 11 30.46 1031 7 11.26538 N/A
11:35 am 11:35 Sunny 32 0 30 -1 93 93 S 10 17 30.46 1031 7 11.26538 N/A
11:55 am 11:55 Sunny 32 0 30 -1 93 93 S 9 15 30.45 1031 7 11.26538 N/A
12:15 pm 12:15 Sunny 32 0 30 -1 93 93 SSE 10 17 30.44 1031 10 16.0934 N/A
12:35 pm 12:35 Sunny 34 1 28 -2 81 81 S 10 17 30.43 1031 10 16.0934 N/A
12:55 pm 12:55 Sunny 34 1 28 -2 81 81 S 12 19 30.41 1030 10 16.0934 N/A
1:15 pm 13:15 Sunny 34 1 28 -2 81 81 S 13 20 30.41 1030 10 16.0934 N/A
1:35 pm 13:35 Sunny 34 1 30 -1 87 87 S 12 19 30.41 1030 10 16.0934 N/A
1:55 pm 13:55 Sunny 36 2 30 -1 81 81 SSE 10 17 30.4 1029 10 16.0934 N/A
2:15 pm 14:15 Sunny 34 1 30 -1 87 87 S 12 19 30.4 1030 10 16.0934 N/A
2:35 pm 14:35 Sunny 36 2 30 -1 81 81 SSE 13 20 30.38 1029 10 16.0934 N/A
2:55 pm 14:55 Sunny 36 2 30 -1 81 81 SSE 13 20 30.37 1028 10 16.0934 N/A
3:15 pm 15:15 Sunny 36 2 30 -1 81 81 S 14 22 30.38 1029 10 16.0934 N/A
3:35 pm 15:35 Sunny 36 2 30 -1 81 81 SSE 13 20 30.37 1028 10 16.0934 N/A
3:55 pm 15:55 Sunny 36 2 32 0 87 87 SSE 9 15 30.37 1028 10 16.0934 N/A
4:15 pm 16:15 Sunny 34 1 30 -1 87 87 SSE 9 15 30.37 1029 10 16.0934 N/A
4:35 pm 16:35 Sunny 34 1 32 0 93 93 SSE 8 13 30.36 1028 10 16.0934 N/A
4:55 pm 16:55 Sunny 34 1 32 0 93 93 S 9 15 30.38 1029 10 16.0934 N/A
5:15 pm 17:15 Sunny 34 1 32 0 93 93 SSE 8 13 30.37 1029 10 16.0934 N/A
5:35 pm 17:35 Clear 34 1 32 0 93 93 S 7 11 30.37 1029 10 16.0934 N/A
5:55 pm 17:55 Clear 32 0 30 -1 93 93 SSE 7 11 30.38 1029 10 16.0934 N/A
6:15 pm 18:15 Clear 32 0 30 -1 93 93 SSE 7 11 30.37 1028 10 16.0934 N/A
6:35 pm 18:35 Clear 32 0 30 -1 93 93 SSE 8 13 30.37 1028 10 16.0934 N/A
6:55 pm 18:55 Clear 32 0 30 -1 93 93 SSE 7 11 30.37 1028 10 16.0934 N/A
7:15 pm 19:15 Clear 32 0 30 -1 93 93 SSE 6 9 30.36 1028 10 16.0934 N/A
7:35 pm 19:35 Clear 32 0 30 -1 93 93 SSE 9 15 30.35 1028 10 16.0934 N/A
7:55 pm 19:55 Clear 32 0 30 -1 93 93 SSE 9 15 30.35 1028 10 16.0934 N/A
8:15 pm 20:15 Clear 32 0 30 -1 93 93 SSE 10 17 30.34 1027 10 16.0934 N/A
8:35 pm 20:35 Clear 32 0 30 -1 93 93 SSE 9 15 30.34 1027 10 16.0934 N/A
8:55 pm 20:55 Clear 32 0 30 -1 93 93 SSE 9 15 30.34 1027 10 16.0934 N/A
9:15 pm 21:15 Clear 32 0 28 -2 87 87 SSE 8 13 30.34 1027 10 16.0934 N/A
9:35 pm 21:35 Clear 32 0 28 -2 87 87 SSE 10 17 30.34 1027 10 16.0934 N/A
9:55 pm 21:55 Clear 32 0 28 -2 87 87 SSE 8 13 30.34 1027 10 16.0934 N/A
10:15 pm 22:15 Clear 32 0 28 -2 87 87 SSE 9 15 30.33 1027 10 16.0934 N/A
10:35 pm 22:35 Clear 32 0 28 -2 87 87 SSE 9 15 30.32 1027 10 16.0934 N/A
10:55 pm 22:55 Clear 32 0 28 -2 87 87 SSE 8 13 30.32 1027 10 16.0934 N/A
11:15 pm 23:15 Clear 30 -1 28 -2 93 93 SSE 8 13 30.32 1027 10 16.0934 N/A
11:35 pm 23:35 Clear 30 -1 30 -1 100 100 SSE 9 15 30.32 1027 10 16.0934 N/A
11:55 pm 23:55 Clear 32 0 30 -1 93 93 SSE 9 15 30.32 1027 10 16.0934 N/A

Powered by AerisWeather